Regional Weather Roundup
Issued by NWS

Home | Current Version | Previous Version | Text Only | Print | Product List | Glossary On
Versions: 1 2 3 4 5 6 7 8 9 10 11 12 13 14 15 16 17 18 19 20 21 22 23 24 25 26 27
000
ASUS44 KBMX 202210
RWRAL

ALABAMA REGIONAL WEATHER ROUNDUP
NATIONAL WEATHER SERVICE BIRMINGHAM AL
500 PM CDT SUN APR 20 2014

NOTE: "FAIR" INDICATES FEW OR NO CLOUDS BELOW 12,000 FEET
WITH NO SIGNIFICANT WEATHER AND/OR OBSTRUCTIONS TO VISIBILITY.

THE REMARK "TC" DENOTES TEMPERATURE IN DEGREES CELSIUS.

ALZ001>011-014-016>018-020-202300-
NORTH ALABAMA

CITY           SKY/WX    TMP DP  RH WIND       PRES   REMARKS
MUSCLE SHOALS  MOSUNNY   79  45  29 E6        30.13F
HUNTSVILLE     PTSUNNY   79  45  29 NW5       30.13F
DECATUR        MOSUNNY   78  46  32 VRB3      30.13F
HALEYVILLE     FAIR      79  44  28 NE6       30.15F
GADSDEN        NOT AVBL
$$

ALZ012-013-022-023-030>036-040>044-202300-
WEST CENTRAL ALABAMA

CITY           SKY/WX    TMP DP  RH WIND       PRES   REMARKS
TUSCALOOSA     MOSUNNY   79  45  29 E5        30.12F
$$

ALZ015-024>027-033>036-040>044-202300-
CENTRAL ALABAMA

CITY           SKY/WX    TMP DP  RH WIND       PRES   REMARKS
BIRMINGHAM     PTSUNNY   79  41  25 CALM      30.14F
MONTGOMERY     MOSUNNY   77  52  41 SE5       30.12F
SHELBY CO ARPT SUNNY     77  44  30 VRB3      30.13F
MAXWELL AFB    SUNNY     79  57  46 VRB2      30.12F
GREENVILLE     FAIR      73  53  49 E6        30.12F
$$

ALZ019-021-028-029-037-038-045>048-202300-
EAST CENTRAL ALABAMA

CITY           SKY/WX    TMP DP  RH WIND       PRES   REMARKS
ANNISTON       SUNNY     77  44  30 NE3       30.12F
ALEXANDER CITY SUNNY     78  40  25 CALM      30.14S
AUBURN         SUNNY     72  46  40 NE8       30.17S
$$

ALZ051>064-202300-
SOUTHWEST ALABAMA

CITY           SKY/WX    TMP DP  RH WIND       PRES   REMARKS
MOBILE         MOSUNNY   73  55  53 N7        30.12F
BROOKLEY FIELD MOSUNNY   72  55  55 NE12      30.13F
EVERGREEN      SUNNY     73  54  51 CALM      30.15S
$$

ALZ049-050-065>069-202300-
SOUTHEAST ALABAMA

CITY           SKY/WX    TMP DP  RH WIND       PRES   REMARKS
DOTHAN         CLOUDY    65  54  67 NE8       30.17F
OZARK          CLOUDY    65  54  68 N7        30.14F
TROY           MOSUNNY   71  53  52 E6        30.14F
EUFAULA          N/A     73  52  47 E5        30.12F
$$



USA.gov is the U.S. government's official web portal to all federal, state and local government web resources and services.